PDT4511 KCLT-KHSV

Flight info

Callsign PDT4511
Flight time 1h 2m
Altitude 34000
Route BOBZY5 BOBZY BRAYN RQZ
Aircraft E145/M-SABDFGRW/S

Departure

Time 2026-04-21 02:19
Airport Charlotte Douglas International Airport (KCLT)

Arrival

Time 2026-04-21 03:21
Airport Huntsville International Airport (KHSV)
Time Latitude Longitude Altitude Speed Heading
2026-04-21 01:57 35.22346 -80.93874 735 ft 0 kts 267°
2026-04-21 02:06 35.22346 -80.93870 735 ft 2 kts 267°
2026-04-21 02:06 35.22347 -80.93851 736 ft 2 kts 267°
2026-04-21 02:07 35.22348 -80.93832 736 ft 1 kts 267°
2026-04-21 02:07 35.22349 -80.93819 736 ft 2 kts 245°
2026-04-21 02:07 35.22360 -80.93804 736 ft 2 kts 202°
2026-04-21 02:07 35.22373 -80.93802 736 ft 0 kts 175°
2026-04-21 02:13 35.22372 -80.93802 736 ft 0 kts 175°
2026-04-21 02:13 35.22357 -80.93800 736 ft 3 kts 175°
2026-04-21 02:14 35.22317 -80.93797 736 ft 6 kts 176°
2026-04-21 02:14 35.22256 -80.93793 735 ft 9 kts 177°
2026-04-21 02:14 35.22190 -80.93748 735 ft 11 kts 129°
2026-04-21 02:14 35.22104 -80.93720 734 ft 13 kts 176°
2026-04-21 02:15 35.21996 -80.93710 733 ft 16 kts 176°
2026-04-21 02:15 35.21869 -80.93698 732 ft 18 kts 175°
2026-04-21 02:15 35.21722 -80.93685 730 ft 20 kts 176°
2026-04-21 02:15 35.21556 -80.93671 728 ft 22 kts 175°
2026-04-21 02:16 35.21375 -80.93655 726 ft 25 kts 176°
2026-04-21 02:16 35.21180 -80.93638 722 ft 27 kts 175°
2026-04-21 02:16 35.20992 -80.93622 719 ft 24 kts 176°
2026-04-21 02:16 35.20803 -80.93607 716 ft 26 kts 178°
2026-04-21 02:17 35.20596 -80.93590 713 ft 28 kts 176°
2026-04-21 02:17 35.20377 -80.93572 711 ft 29 kts 175°
2026-04-21 02:17 35.20227 -80.93558 710 ft 18 kts 176°
2026-04-21 02:17 35.20142 -80.93549 709 ft 7 kts 167°
2026-04-21 02:18 35.20113 -80.93524 709 ft 0 kts 121°
2026-04-21 02:18 35.20108 -80.93494 709 ft 13 kts 96°
2026-04-21 02:18 35.20190 -80.93417 709 ft 21 kts 356°
2026-04-21 02:18 35.20600 -80.93454 713 ft 91 kts 355°
2026-04-21 02:19 35.21463 -80.93533 731 ft 143 kts 355°
2026-04-21 02:19 35.22537 -80.93649 1043 ft 158 kts 354°
2026-04-21 02:19 35.23671 -80.93786 1655 ft 161 kts 356°
2026-04-21 02:19 35.24783 -80.93733 2291 ft 159 kts 12°
2026-04-21 02:20 35.25875 -80.93350 2808 ft 168 kts 17°
2026-04-21 02:20 35.27040 -80.92915 3378 ft 176 kts 17°
2026-04-21 02:20 35.28284 -80.92436 3851 ft 192 kts 17°
2026-04-21 02:20 35.29664 -80.91874 4244 ft 212 kts 15°
2026-04-21 02:21 35.31200 -80.91843 4793 ft 219 kts 339°
2026-04-21 02:21 35.32472 -80.93008 5130 ft 239 kts 304°
2026-04-21 02:21 35.32941 -80.94993 5774 ft 248 kts 269°
2026-04-21 02:21 35.32369 -80.96976 6678 ft 249 kts 242°
2026-04-21 02:22 35.31537 -80.98846 7383 ft 249 kts 249°
2026-04-21 02:22 35.30810 -81.00826 8031 ft 253 kts 251°
2026-04-21 02:22 35.30092 -81.02852 8742 ft 255 kts 251°
2026-04-21 02:22 35.29367 -81.04913 9425 ft 258 kts 251°
2026-04-21 02:23 35.28633 -81.07003 10125 ft 259 kts 252°
2026-04-21 02:23 35.27877 -81.09156 10732 ft 265 kts 252°
2026-04-21 02:23 35.27130 -81.11284 11164 ft 275 kts 252°
2026-04-21 02:23 35.26340 -81.13531 11585 ft 286 kts 252°
2026-04-21 02:24 35.25529 -81.15836 12031 ft 294 kts 252°
2026-04-21 02:24 35.24695 -81.18204 12421 ft 304 kts 252°
2026-04-21 02:24 35.23820 -81.20686 12907 ft 310 kts 252°
2026-04-21 02:24 35.22888 -81.23326 13533 ft 312 kts 252°
2026-04-21 02:25 35.21933 -81.26032 14114 ft 315 kts 253°
2026-04-21 02:25 35.21011 -81.28640 14650 ft 319 kts 253°
2026-04-21 02:25 35.20047 -81.31368 15227 ft 321 kts 253°
2026-04-21 02:25 35.19447 -81.34065 15717 ft 312 kts 272°
2026-04-21 02:26 35.19372 -81.36763 16247 ft 312 kts 274°
2026-04-21 02:26 35.19292 -81.39606 16759 ft 314 kts 274°
2026-04-21 02:26 35.19215 -81.42362 17270 ft 316 kts 275°
2026-04-21 02:26 35.19138 -81.45137 17760 ft 318 kts 275°
2026-04-21 02:27 35.19060 -81.47903 18319 ft 317 kts 275°
2026-04-21 02:27 35.18983 -81.50621 18861 ft 316 kts 275°
2026-04-21 02:27 35.18904 -81.53356 19430 ft 314 kts 275°
2026-04-21 02:27 35.18811 -81.56053 20018 ft 311 kts 275°
2026-04-21 02:28 35.18718 -81.58749 20601 ft 310 kts 276°
2026-04-21 02:28 35.18625 -81.61424 21161 ft 307 kts 276°
2026-04-21 02:28 35.18540 -81.64109 21700 ft 305 kts 277°
2026-04-21 02:28 35.18490 -81.66740 22221 ft 304 kts 276°
2026-04-21 02:29 35.18436 -81.69432 22782 ft 303 kts 277°
2026-04-21 02:29 35.18384 -81.72033 23297 ft 302 kts 277°
2026-04-21 02:29 35.18332 -81.74578 23840 ft 299 kts 277°
2026-04-21 02:29 35.18278 -81.77226 24351 ft 299 kts 277°
2026-04-21 02:30 35.18225 -81.79766 24847 ft 298 kts 277°
2026-04-21 02:30 35.18169 -81.82406 25397 ft 295 kts 277°
2026-04-21 02:30 35.18115 -81.84970 25870 ft 295 kts 277°
2026-04-21 02:30 35.18061 -81.87507 26383 ft 293 kts 277°
2026-04-21 02:31 35.18006 -81.90035 26820 ft 293 kts 277°
2026-04-21 02:31 35.17950 -81.92594 27338 ft 290 kts 277°
2026-04-21 02:31 35.17895 -81.95112 27814 ft 289 kts 277°
2026-04-21 02:31 35.17839 -81.97617 28312 ft 287 kts 277°
2026-04-21 02:32 35.17784 -82.00072 28757 ft 286 kts 277°
2026-04-21 02:32 35.17728 -82.02533 29160 ft 286 kts 277°
2026-04-21 02:32 35.17672 -82.04974 29599 ft 284 kts 278°
2026-04-21 02:32 35.17616 -82.07410 30019 ft 283 kts 278°
2026-04-21 02:33 35.17559 -82.09847 30406 ft 283 kts 278°
2026-04-21 02:33 35.17503 -82.12254 30849 ft 280 kts 277°
2026-04-21 02:33 35.17447 -82.14633 31205 ft 280 kts 278°
2026-04-21 02:33 35.17390 -82.17039 31542 ft 280 kts 278°
2026-04-21 02:34 35.17332 -82.19428 31876 ft 280 kts 277°
2026-04-21 02:34 35.17287 -82.21800 32262 ft 276 kts 278°
2026-04-21 02:34 35.17152 -82.24159 32605 ft 280 kts 273°
2026-04-21 02:34 35.16958 -82.26556 32879 ft 281 kts 274°
2026-04-21 02:35 35.16786 -82.28912 33205 ft 279 kts 274°
2026-04-21 02:35 35.16620 -82.31267 33583 ft 276 kts 274°
2026-04-21 02:35 35.16459 -82.33604 33881 ft 276 kts 275°
2026-04-21 02:35 35.16299 -82.35957 34167 ft 276 kts 274°
2026-04-21 02:36 35.16139 -82.38328 34290 ft 282 kts 274°
2026-04-21 02:36 35.15975 -82.40748 34307 ft 287 kts 274°
2026-04-21 02:36 35.15807 -82.43214 34306 ft 293 kts 274°
2026-04-21 02:36 35.15637 -82.45688 34303 ft 298 kts 274°
2026-04-21 02:37 35.15461 -82.48261 34305 ft 304 kts 274°
2026-04-21 02:37 35.15100 -82.53497 34302 ft 314 kts 274°
2026-04-21 02:38 35.14727 -82.58862 34301 ft 324 kts 273°
2026-04-21 02:38 35.14339 -82.64407 34307 ft 333 kts 273°
2026-04-21 02:39 35.13937 -82.70141 34315 ft 342 kts 272°
2026-04-21 02:39 35.13522 -82.76002 34308 ft 350 kts 272°
2026-04-21 02:40 35.13092 -82.82027 34313 ft 358 kts 272°
2026-04-21 02:40 35.12652 -82.88154 34314 ft 365 kts 272°
2026-04-21 02:41 35.12199 -82.94411 34317 ft 372 kts 272°
2026-04-21 02:41 35.11740 -83.00714 34328 ft 377 kts 272°
2026-04-21 02:42 35.11269 -83.07143 34332 ft 383 kts 272°
2026-04-21 02:42 35.10785 -83.13686 34320 ft 389 kts 271°
2026-04-21 02:43 35.10290 -83.20327 34320 ft 391 kts 272°
2026-04-21 02:43 35.09797 -83.26901 34320 ft 391 kts 272°
2026-04-21 02:44 35.09296 -83.33524 34322 ft 392 kts 272°
2026-04-21 02:44 35.08796 -83.40102 34316 ft 392 kts 271°
2026-04-21 02:45 35.08289 -83.46712 34326 ft 392 kts 272°
2026-04-21 02:45 35.07777 -83.53337 34325 ft 392 kts 272°
2026-04-21 02:46 35.07266 -83.59908 34332 ft 391 kts 272°
2026-04-21 02:46 35.06747 -83.66537 34334 ft 391 kts 271°
2026-04-21 02:47 35.06365 -83.73151 34322 ft 386 kts 278°
2026-04-21 02:47 35.07481 -83.79382 34325 ft 376 kts 292°
2026-04-21 02:48 35.08296 -83.85742 34327 ft 388 kts 274°
2026-04-21 02:48 35.07575 -83.92309 34326 ft 393 kts 269°
2026-04-21 02:49 35.06923 -83.98924 34321 ft 392 kts 270°
2026-04-21 02:49 35.06314 -84.05483 34328 ft 392 kts 270°
2026-04-21 02:50 35.05701 -84.12112 34321 ft 392 kts 270°
2026-04-21 02:50 35.05084 -84.18732 34319 ft 392 kts 270°
2026-04-21 02:51 35.04468 -84.25320 34325 ft 392 kts 270°
2026-04-21 02:51 35.03847 -84.31907 34323 ft 392 kts 270°
2026-04-21 02:52 35.03220 -84.38529 34321 ft 392 kts 270°
2026-04-21 02:52 35.02594 -84.45104 34319 ft 392 kts 270°
2026-04-21 02:53 35.01963 -84.51685 34316 ft 392 kts 270°
2026-04-21 02:53 35.01323 -84.58328 34309 ft 393 kts 270°
2026-04-21 02:54 35.00678 -84.64979 34303 ft 393 kts 270°
2026-04-21 02:54 35.00033 -84.71592 34302 ft 393 kts 269°
2026-04-21 02:55 34.99385 -84.78202 34304 ft 394 kts 269°
2026-04-21 02:55 34.98729 -84.84849 34295 ft 395 kts 269°
2026-04-21 02:56 34.98074 -84.91457 34297 ft 395 kts 270°
2026-04-21 02:56 34.97079 -85.01412 34303 ft 396 kts 269°
2026-04-21 02:57 34.96408 -85.08084 34299 ft 396 kts 269°
2026-04-21 02:57 34.95739 -85.14693 34311 ft 396 kts 269°
2026-04-21 02:58 34.95061 -85.21360 34301 ft 396 kts 269°
2026-04-21 02:58 34.94384 -85.27979 34302 ft 396 kts 269°
2026-04-21 02:59 34.93702 -85.34615 34304 ft 395 kts 269°
2026-04-21 02:59 34.93019 -85.41215 34313 ft 395 kts 269°
2026-04-21 03:00 34.92326 -85.47885 34304 ft 395 kts 269°
2026-04-21 03:00 34.91639 -85.54466 34316 ft 395 kts 269°
2026-04-21 03:01 34.90943 -85.61083 34310 ft 395 kts 269°
2026-04-21 03:01 34.90241 -85.67738 34331 ft 395 kts 269°
2026-04-21 03:02 34.89534 -85.74385 34220 ft 396 kts 268°
2026-04-21 03:02 34.89178 -85.77722 33697 ft 398 kts 268°
2026-04-21 03:02 34.88826 -85.81026 33251 ft 398 kts 269°
2026-04-21 03:03 34.88469 -85.84354 32765 ft 398 kts 268°
2026-04-21 03:03 34.88108 -85.87708 32276 ft 399 kts 268°
2026-04-21 03:03 34.87748 -85.91055 31778 ft 400 kts 268°
2026-04-21 03:03 34.87385 -85.94411 31275 ft 401 kts 268°
2026-04-21 03:04 34.87020 -85.97788 30730 ft 403 kts 268°
2026-04-21 03:04 34.86652 -86.01173 30201 ft 404 kts 268°
2026-04-21 03:04 34.86282 -86.04571 29674 ft 405 kts 268°
2026-04-21 03:04 34.85910 -86.07975 29141 ft 404 kts 268°
2026-04-21 03:05 34.85544 -86.11299 28575 ft 390 kts 268°
2026-04-21 03:05 34.85187 -86.14555 27971 ft 378 kts 268°
2026-04-21 03:05 34.84839 -86.17721 27375 ft 367 kts 269°
2026-04-21 03:05 34.84501 -86.20781 26785 ft 358 kts 268°
2026-04-21 03:06 34.84171 -86.23766 26193 ft 350 kts 269°
2026-04-21 03:06 34.83849 -86.26690 25600 ft 343 kts 268°
2026-04-21 03:06 34.83532 -86.29543 24992 ft 337 kts 269°
2026-04-21 03:06 34.83220 -86.32353 24310 ft 334 kts 269°
2026-04-21 03:07 34.82906 -86.35173 23604 ft 332 kts 269°
2026-04-21 03:07 34.82596 -86.37950 22884 ft 332 kts 269°
2026-04-21 03:07 34.82282 -86.40745 22252 ft 328 kts 268°
2026-04-21 03:07 34.81977 -86.43459 21659 ft 324 kts 268°
2026-04-21 03:08 34.81673 -86.46167 21036 ft 322 kts 268°
2026-04-21 03:08 34.81372 -86.48846 20389 ft 320 kts 268°
2026-04-21 03:08 34.81099 -86.51541 19738 ft 315 kts 274°
2026-04-21 03:08 34.81485 -86.54061 19085 ft 302 kts 298°
2026-04-21 03:09 34.82756 -86.56052 18440 ft 295 kts 323°
2026-04-21 03:09 34.84605 -86.57061 17811 ft 294 kts 348°
2026-04-21 03:09 34.86654 -86.57236 17299 ft 291 kts 355°
2026-04-21 03:09 34.88670 -86.57336 16747 ft 289 kts 355°
2026-04-21 03:10 34.90689 -86.57437 16162 ft 287 kts 355°
2026-04-21 03:10 34.92686 -86.57534 15594 ft 285 kts 355°
2026-04-21 03:10 34.94677 -86.57614 15074 ft 282 kts 358°
2026-04-21 03:10 34.96661 -86.57460 14517 ft 281 kts
2026-04-21 03:11 34.98604 -86.57281 14011 ft 278 kts
2026-04-21 03:11 35.00537 -86.57104 13690 ft 268 kts
2026-04-21 03:11 35.02382 -86.56929 13312 ft 263 kts
2026-04-21 03:11 35.04245 -86.56758 12779 ft 263 kts
2026-04-21 03:12 35.06124 -86.56599 12279 ft 261 kts 359°
2026-04-21 03:12 35.07911 -86.57031 11760 ft 256 kts 332°
2026-04-21 03:12 35.09209 -86.58563 11251 ft 257 kts 301°
2026-04-21 03:12 35.09628 -86.60770 10747 ft 266 kts 274°
2026-04-21 03:13 35.09495 -86.62996 10323 ft 265 kts 271°
2026-04-21 03:13 35.09346 -86.65231 9893 ft 263 kts 270°
2026-04-21 03:13 35.09034 -86.67475 9409 ft 270 kts 253°
2026-04-21 03:13 35.07900 -86.69346 9005 ft 278 kts 227°
2026-04-21 03:14 35.06431 -86.70897 8613 ft 275 kts 225°
2026-04-21 03:14 35.04995 -86.72427 8209 ft 273 kts 225°
2026-04-21 03:14 35.03430 -86.73826 7839 ft 273 kts 212°
2026-04-21 03:14 35.01689 -86.74899 7471 ft 270 kts 210°
2026-04-21 03:15 34.99955 -86.75980 7091 ft 267 kts 209°
2026-04-21 03:15 34.98181 -86.76753 6725 ft 267 kts 197°
2026-04-21 03:15 34.96349 -86.77174 6367 ft 265 kts 191°
2026-04-21 03:15 34.94514 -86.77419 5989 ft 264 kts 187°
2026-04-21 03:16 34.92687 -86.77563 5579 ft 264 kts 185°
2026-04-21 03:16 34.90834 -86.77653 5376 ft 255 kts 184°
2026-04-21 03:16 34.89035 -86.77713 5097 ft 251 kts 184°
2026-04-21 03:16 34.87271 -86.77760 4733 ft 251 kts 183°
2026-04-21 03:17 34.85484 -86.77801 4393 ft 250 kts 183°
2026-04-21 03:17 34.83743 -86.77838 4080 ft 248 kts 182°
2026-04-21 03:17 34.82046 -86.77872 3869 ft 241 kts 182°
2026-04-21 03:17 34.80378 -86.77906 3592 ft 231 kts 182°
2026-04-21 03:18 34.78812 -86.77937 3282 ft 212 kts 182°
2026-04-21 03:18 34.77390 -86.77965 2995 ft 188 kts 182°
2026-04-21 03:18 34.76142 -86.77991 2770 ft 163 kts 182°
2026-04-21 03:18 34.75041 -86.78013 2533 ft 145 kts 181°
2026-04-21 03:19 34.74025 -86.78034 2340 ft 144 kts 181°
2026-04-21 03:19 34.72986 -86.78055 2152 ft 146 kts 181°
2026-04-21 03:19 34.71920 -86.78076 1951 ft 147 kts 181°
2026-04-21 03:19 34.70870 -86.78097 1752 ft 147 kts 181°
2026-04-21 03:20 34.69785 -86.78119 1556 ft 147 kts 181°
2026-04-21 03:20 34.68667 -86.78140 1356 ft 144 kts 181°
2026-04-21 03:20 34.67648 -86.78159 1125 ft 142 kts 181°
2026-04-21 03:20 34.66660 -86.78174 917 ft 140 kts 182°
2026-04-21 03:21 34.65642 -86.78199 743 ft 138 kts 180°
2026-04-21 03:21 34.64657 -86.78220 628 ft 129 kts 181°
2026-04-21 03:21 34.63945 -86.78236 624 ft 58 kts 181°
2026-04-21 03:21 34.63629 -86.78243 620 ft 27 kts 180°
2026-04-21 03:22 34.63476 -86.78220 618 ft 15 kts 125°
2026-04-21 03:22 34.63465 -86.78137 618 ft 0 kts 89°
2026-04-21 03:22 34.63465 -86.78127 618 ft 2 kts 89°
2026-04-21 03:22 34.63466 -86.78100 618 ft 3 kts 88°
2026-04-21 03:23 34.63467 -86.78057 618 ft 5 kts 86°
2026-04-21 03:23 34.63485 -86.78009 619 ft 7 kts 41°
2026-04-21 03:23 34.63538 -86.77996 619 ft 8 kts
2026-04-21 03:23 34.63602 -86.77997 620 ft 9 kts 358°
2026-04-21 03:24 34.63675 -86.77994 621 ft 10 kts
2026-04-21 03:24 34.63756 -86.77993 622 ft 12 kts
2026-04-21 03:24 34.63851 -86.77989 622 ft 13 kts
2026-04-21 03:24 34.63956 -86.77988 623 ft 14 kts
2026-04-21 03:25 34.64060 -86.77986 624 ft 15 kts
2026-04-21 03:25 34.64174 -86.77984 624 ft 16 kts
2026-04-21 03:25 34.64294 -86.77981 624 ft 15 kts
2026-04-21 03:25 34.64386 -86.77900 623 ft 17 kts 51°
2026-04-21 03:26 34.64469 -86.77774 621 ft 17 kts 51°
2026-04-21 03:26 34.64541 -86.77666 619 ft 16 kts 49°
2026-04-21 03:26 34.64656 -86.77628 618 ft 14 kts 359°
2026-04-21 03:26 34.64700 -86.77618 618 ft 4 kts 38°
2026-04-21 03:27 34.64715 -86.77571 616 ft 5 kts 91°
2026-04-21 03:27 34.64715 -86.77560 616 ft 0 kts 90°